User: anonymous   Login
Location: Unspecified
(0.0000°N, 0.0000°E)
Time: 10:20:31
(UTC+00:00)
Language:

ORS 1 (USA 231) - Orbit

View from above orbital plane
View from above orbital plane
View from above satellite
View from above satellite

Ground track
Ground track

The orbit data is extracted from the following two-line orbital elements,

1 37728U 11029A   17248.12754630 0.00030000  00000-0  22569-3 0    03
2 37728  39.9939 309.1186 0002000 179.3673 180.6320 15.71536781    01
Epoch (UTC): 05 September 2017 03:03:40
Eccentricity: 0.0002000
inclination: 39.9939°
perigee height: 353 km
apogee height: 356 km
right ascension of ascending node: 309.1186°
argument of perigee: 179.3673°
revolutions per day: 15.71536781
mean anomaly at epoch: 180.6320°
orbit number at epoch: 0

The dashed part of the orbit path shows where the satellite is in the earth's shadow,  

DLR